W2GLD-13 Weather Reports


time (UTC)temp
C
wind
direction
speed
KPH
gust
KPH
rain 1hr
cm
rain 24hr
cm
rain mn
cm
humidity
%
barometer
mb
20260502203005 7 360 0.0 19.3 0.00 0.00 0.00 46 1015.8
20260502201505 7 360 0.0 19.3 0.00 0.00 0.00 46 1015.8
20260502200019 7 0 4.8 19.3 0.00 0.00 0.00 46 1015.1
20260502200005 7 360 0.0 12.9 0.00 0.00 0.00 44 1016.3
20260502194505 7 360 0.0 12.9 0.00 0.00 0.00 44 1016.3
20260502193006 7 360 0.0 12.9 0.00 0.00 0.00 44 1016.3
20260502191506 7 360 0.0 12.9 0.00 0.00 0.00 44 1016.3
20260502190019 7 0 3.2 12.9 0.00 0.00 0.00 44 1015.6
20260502190005 7 360 0.0 12.9 0.00 0.00 0.00 46 1016.6
20260502184505 7 360 0.0 12.9 0.00 0.00 0.00 46 1016.6
20260502183005 7 360 0.0 12.9 0.00 0.00 0.00 46 1016.6
20260502181505 7 360 0.0 12.9 0.00 0.00 0.00 46 1016.6
20260502163005 6 360 0.0 9.7 0.00 0.00 0.00 48 1017.3
20260502161505 6 360 0.0 9.7 0.00 0.00 0.00 48 1017.3
20260502151505 5 360 0.0 12.9 0.00 0.00 0.00 50 1017.2
20260502123006 0 0.0 4.8 0.00 0.00 0.00 79 1017.1
20260502121506 0 0.0 4.8 0.00 0.00 0.00 79 1017.1
20260502114505 0 0.0 0.0 0.00 0.00 0.00 85 1016.8
20260502113005 0 0.0 0.0 0.00 0.00 0.00 85 1016.8
20260502111505 0 0.0 0.0 0.00 0.00 0.00 85 1016.8
20260502110021 0 0.0 0.0 0.00 0.00 0.00 85 1015.7
20260502103005 0 0.0 0.0 0.00 0.00 0.00 81 1016.6
20260502101506 0 0.0 0.0 0.00 0.00 0.00 81 1016.6
20260502091505 2 0.0 0.0 0.00 0.00 0.00 76 1016.1
20260502071505 4 0.0 3.2 0.00 0.00 0.00 66 1015.8
20260502070019 4 0.0 3.2 0.00 0.00 0.00 66 1015.1
20260502070005 4 0.0 6.4 0.00 0.00 0.00 63 1016.1
20260502064505 4 0.0 6.4 0.00 0.00 0.00 63 1016.1
20260502063005 4 0.0 6.4 0.00 0.00 0.00 63 1016.1
20260502061505 4 0.0 6.4 0.00 0.00 0.00 63 1016.1
20260502060019 4 0.0 6.4 0.00 0.00 0.00 63 1015.5
20260502060005 5 0.0 6.4 0.00 0.00 0.00 64 1016.0
20260502054505 5 0.0 6.4 0.00 0.00 0.00 64 1016.0
20260502053006 5 0.0 6.4 0.00 0.00 0.00 64 1016.0
20260502051506 5 0.0 6.4 0.00 0.00 0.00 64 1016.0
20260502050019 5 0.0 6.4 0.00 0.00 0.00 64 1015.4
20260502050005 5 360 0.0 6.4 0.00 0.00 0.00 65 1015.5
20260502044505 5 360 0.0 6.4 0.00 0.00 0.00 65 1015.5
20260502043005 5 360 0.0 6.4 0.00 0.00 0.00 65 1015.5
20260502041505 5 360 0.0 6.4 0.00 0.00 0.00 65 1015.5
20260502040019 5 0 1.6 6.4 0.00 0.00 0.00 65 1014.8
20260502040005 5 0.0 4.8 0.00 0.00 0.00 72 1015.2
20260502034505 5 0.0 4.8 0.00 0.00 0.00 72 1015.2
20260502033005 5 0.0 4.8 0.00 0.00 0.00 72 1015.2
20260502031506 5 0.0 4.8 0.00 0.00 0.00 72 1015.2
20260502030020 5 0.0 4.8 0.00 0.00 0.00 72 1014.5
20260502030006 5 0.0 8.0 0.00 0.00 0.00 70 1015.0
20260502024506 5 0.0 8.0 0.00 0.00 0.00 70 1015.0
20260502023005 5 0.0 8.0 0.00 0.00 0.00 70 1015.0
20260502021505 5 0.0 8.0 0.00 0.00 0.00 70 1015.0
20260502020020 6 0.0 8.0 0.00 0.00 0.00 70 1014.2
20260502020005 6 360 0.0 8.0 0.00 0.00 0.00 66 1014.5
20260502014505 6 360 0.0 8.0 0.00 0.00 0.00 66 1014.5
20260502013005 6 360 0.0 8.0 0.00 0.00 0.00 66 1014.5
20260502011505 6 360 0.0 8.0 0.00 0.00 0.00 66 1014.5
20260502010020 6 0 1.6 8.0 0.00 0.00 0.00 66 1013.8
20260502010006 6 360 0.0 9.7 0.00 0.00 0.00 67 1014.1
20260502004506 6 360 0.0 9.7 0.00 0.00 0.00 67 1014.1
20260502003006 6 360 0.0 9.7 0.00 0.00 0.00 67 1014.1
20260502001505 6 360 0.0 9.7 0.00 0.00 0.00 67 1014.1
20260502000020 6 0 1.6 9.7 0.00 0.00 0.00 67 1013.3
20260502000005 7 360 0.0 12.9 0.00 0.00 0.00 65 1013.8
20260501234505 7 360 0.0 12.9 0.00 0.00 0.00 65 1013.8
20260501233005 7 360 0.0 12.9 0.00 0.00 0.00 65 1013.8
20260501231505 7 360 0.0 12.9 0.00 0.00 0.00 65 1013.8
20260501230020 7 0 3.2 12.9 0.00 0.00 0.00 65 1013.1
20260501230005 7 360 0.0 14.5 0.00 0.00 0.00 64 1013.4
20260501224506 7 360 0.0 14.5 0.00 0.00 0.00 64 1013.4
20260501223006 7 360 0.0 14.5 0.00 0.00 0.00 64 1013.4
20260501221506 7 360 0.0 14.5 0.00 0.00 0.00 64 1013.4
20260501220020 7 0 3.2 14.5 0.00 0.00 0.00 64 1012.8
20260501220005 8 360 0.0 9.7 0.00 0.00 0.00 60 1013.2
20260501214505 8 360 0.0 9.7 0.00 0.00 0.00 60 1013.2
20260501213005 8 360 0.0 9.7 0.00 0.00 0.00 60 1013.2
20260501211505 8 360 0.0 9.7 0.00 0.00 0.00 60 1013.2
20260501210120 8 0 3.2 9.7 0.00 0.00 0.00 60 1012.6
20260501210005 8 360 0.0 9.7 0.00 0.00 0.00 58 1012.9
20260501204505 8 360 0.0 9.7 0.00 0.00 0.00 58 1012.9